Powrót do katalogu

NOAA 16 DEB

AktywnyPO
NORAD 41711·DEBRIS·🇺🇸 United States

Wystrzelony Sep 21, 2000 z Vandenberg Space Force Base

Loading…

Następne Przeloty (najbliższe 24 godziny)

TLE

ŚwieżeSource: Space-Track

Epoka: Sep 13, 2026, 14:08 UTC

1 41711U 00055PR  26256.58911360  .00006476  00000-0  16595-2 0  9999
2 41711  98.7984  27.6135 0009096 260.0248  99.9919 14.50659272540940

Śledź NOAA 16 DEB w czasie rzeczywistym z AllMySat

Download on the App Store